Temp
-5 -5 -5 -5 -5 -6 -7 -7 -6 -6 -6 -6 -6 -6 -6 -6 -6 -5 -5 -5 -5 -5 -5 -6 -6 -6 -6 -6 -6 -6 -6 -6 -6 -6 -6 -6 -6 -6 -7 -7 -6 -7 -7 -7 -8
-5 -5 -6 -5 -5 -6 -6 -6 -6 -6 -6 -6 -6 -6 -6 -6 -6 -6 -5 -5 -5 -5 -6 -6 -6 -6 -6 -6 -6 -6 -6 -6 -6 -6 -6 -6 -7 -7 -7 -7 -7 -7 -7 -7 -7
-5 -5 -5 -6 -6 -6 -6 -6 -6 -6 -6 -6 -6 -6 -6 -6 -6 -5 -5 -5 -5 -6 -6 -6 -6 -6 -6 -6 -6 -6 -6 -6 -6 -7 -7 -7 -7 -7 -8 -8 -7 -7 -7 -7 -7
-6 -6 -6 -5 -6 -6 -6 -6 -6 -6 -6 -6 -6 -6 -6 -6 -6 -6 -6 -5 -6 -6 -6 -6 -6 -6 -6 -7 -7 -7 -7 -7 -7 -7 -7 -7 -7 -8 -8 -8 -8 -8 -8 -7 -7
-5 -5 -5 -5 -5 -5 -5 -6 -6 -6 -6 -6 -6 -6 -5 -5 -5 -5 -5 -6 -6 -6 -6 -6 -7 -7 -7 -7 -7 -7 -7 -7 -7 -7 -8 -8 -8 -8 -8 -8 -8 -8 -8 -8 -8
-5 -5 -5 -5 -5 -5 -5 -5 -5 -6 -6 -6 -6 -6 -6 -6 -6 -6 -6 -6 -6 -7 -7 -7 -7 -7 -7 -8 -8 -8 -8 -8 -8 -8 -8 -8 -8 -8 -8 -8 -9 -9 -9 -9 -9
-5 -5 -5 -5 -5 -5 -5 -5 -5 -5 -6 -6 -6 -6 -6 -6 -6 -6 -7 -7 -7 -7 -8 -8 -8 -8 -8 -8 -8 -8 -8 -8 -9 -8 -8 -8 -9 -9 -9 -9 -9 -9 -9 -9 -9
-6 -5 -5 -5 -5 -5 -4 -5 -5 -6 -6 -6 -6 -6 -7 -7 -7 -7 -7 -7 -8 -8 -8 -8 -8 -8 -8 -8 -8 -9 -9 -9 -9 -9 -9 -8 -9 -9 -9 -9 -9 -10 -10 -10 -10
-5 -5 -5 -5 -5 -5 -5 -5 -5 -6 -6 -6 -6 -7 -7 -7 -7 -8 -8 -8 -8 -8 -8 -9 -9 -9 -9 -9 -9 -9 -9 -9 -9 -9 -9 -9 -9 -9 -9 -9 -9 -9 -9 -9 -9
-6 -5 -5 -5 -5 -5 -5 -5 -6 -6 -6 -6 -7 -7 -7 -7 -8 -8 -8 -8 -8 -9 -9 -9 -9 -9 -9 -9 -9 -9 -9 -9 -9 -9 -9 -9 -9 -9 -9 -9 -9 -9 -10 -10 -10
-6 -5 -5 -5 -5 -5 -5 -6 -6 -6 -6 -7 -7 -7 -8 -8 -8 -8 -8 -8 -9 -9 -9 -9 -9 -9 -9 -9 -9 -9 -9 -9 -9 -9 -9 -9 -9 -9 -9 -9 -9 -10 -10 -10 -10
-6 -6 -6 -6 -6 -6 -6 -6 -6 -6 -7 -7 -7 -8 -8 -8 -8 -9 -9 -9 -9 -9 -9 -10 -9 -9 -9 -9 -9 -9 -9 -9 -9 -9 -9 -9 -9 -9 -9 -10 -10 -10 -10 -10 -11
-6 -6 -6 -6 -6 -6 -6 -6 -6 -6 -7 -7 -8 -8 -8 -9 -9 -9 -10 -9 -9 -9 -10 -10 -10 -10 -10 -10 -10 -10 -10 -10 -10 -9 -10 -10 -9 -10 -10 -10 -10 -11 -11 -11 -11
-7 -7 -7 -7 -7 -6 -6 -6 -6 -7 -7 -8 -8 -8 -9 -9 -9 -10 -10 -10 -10 -10 -10 -10 -10 -10 -10 -10 -10 -10 -10 -10 -10 -11 -10 -10 -10 -10 -10 -11 -11 -12 -12 -12 -12
-7 -7 -7 -7 -7 -7 -7 -7 -7 -7 -7 -8 -8 -9 -9 -9 -9 -9 -10 -10 -10 -10 -10 -10 -10 -10 -10 -11 -11 -11 -11 -11 -11 -11 -11 -11 -11 -11 -11 -11 -12 -13 -13 -14 -14
-8 -8 -7 -7 -7 -7 -7 -7 -7 -7 -8 -8 -9 -9 -9 -10 -10 -10 -10 -10 -10 -10 -10 -11 -11 -11 -11 -11 -11 -11 -11 -11 -11 -12 -11 -11 -12 -11 -12 -13 -14 -15 -15 -16 -17
-8 -8 -8 -7 -7 -7 -7 -7 -8 -8 -8 -8 -9 -9 -10 -10 -10 -10 -10 -10 -10 -10 -10 -10 -10 -10 -11 -11 -11 -12 -12 -12 -11 -12 -12 -13 -13 -13 -15 -16 -17 -18 -18 -18 -18
-9 -8 -8 -8 -8 -8 -7 -7 -7 -8 -8 -9 -9 -9 -10 -10 -10 -10 -10 -10 -10 -10 -10 -10 -10 -11 -11 -11 -12 -12 -12 -13 -13 -13 -13 -14 -15 -15 -17 -19 -19 -20 -20 -20 -21
-9 -9 -9 -9 -8 -8 -8 -8 -8 -9 -9 -10 -10 -10 -10 -10 -11 -10 -10 -10 -10 -11 -11 -11 -10 -11 -11 -12 -12 -13 -13 -14 -15 -15 -16 -16 -16 -17 -20 -21 -22 -22 -22 -23 -23
-9 -9 -9 -9 -9 -9 -9 -9 -9 -9 -10 -10 -10 -11 -11 -11 -11 -10 -10 -10 -11 -11 -11 -12 -11 -11 -12 -12 -13 -14 -14 -16 -18 -19 -19 -19 -19 -19 -22 -23 -24 -23 -24 -24 -25
-9 -10 -10 -9 -9 -9 -9 -9 -10 -10 -10 -11 -11 -11 -11 -11 -10 -11 -11 -11 -11 -12 -12 -12 -12 -12 -13 -14 -14 -15 -17 -19 -20 -21 -22 -21 -20 -22 -24 -24 -24 -24 -25 -26 -26
-10 -10 -10 -10 -10 -10 -10 -10 -11 -11 -11 -11 -11 -11 -11 -11 -11 -12 -12 -12 -12 -13 -13 -13 -13 -13 -13 -14 -16 -17 -18 -20 -22 -22 -23 -24 -21 -24 -24 -25 -25 -25 -26 -26 -27
-11 -11 -11 -10 -10 -10 -10 -11 -11 -11 -11 -11 -11 -11 -11 -12 -12 -12 -12 -12 -13 -13 -14 -13 -13 -14 -14 -16 -19 -19 -21 -23 -24 -24 -24 -25 -23 -25 -25 -26 -27 -27 -26 -26 -27
-11 -11 -11 -11 -11 -11 -11 -11 -11 -11 -11 -11 -11 -12 -12 -12 -12 -12 -13 -13 -14 -14 -15 -15 -14 -16 -18 -20 -21 -21 -22 -23 -24 -24 -25 -24 -25 -26 -27 -27 -27 -27 -27 -27 -26
-11 -11 -11 -11 -11 -11 -11 -12 -12 -12 -12 -12 -12 -12 -12 -12 -13 -13 -13 -14 -14 -15 -16 -17 -18 -20 -20 -22 -23 -23 -23 -24 -25 -25 -26 -25 -26 -27 -28 -28 -27 -27 -27 -27 -27
-12 -12 -12 -12 -12 -12 -12 -12 -12 -12 -12 -12 -12 -12 -12 -13 -13 -13 -13 -14 -14 -15 -16 -18 -20 -20 -20 -23 -24 -24 -25 -25 -25 -26 -27 -27 -27 -28 -28 -28 -28 -28 -27 -27 -27
-12 -12 -12 -12 -12 -12 -12 -12 -12 -12 -13 -12 -12 -13 -13 -14 -14 -14 -14 -15 -15 -16 -19 -20 -22 -23 -22 -23 -24 -25 -25 -25 -26 -27 -28 -28 -28 -28 -28 -28 -28 -28 -28 -28 -27
Height
5881 5881 5881 5880 5879 5878 5879 5881 5881 5881 5880 5880 5880 5880 5880 5880 5879 5879 5879 5878 5878 5877 5876 5875 5874 5873 5871 5870 5869 5868 5867 5865 5864 5863 5862 5861 5860 5858 5857 5854 5851 5851 5851 5850 5848
5880 5880 5880 5880 5879 5879 5879 5879 5879 5879 5879 5879 5879 5878 5878 5877 5877 5877 5876 5875 5874 5873 5873 5871 5870 5869 5868 5867 5866 5865 5864 5862 5861 5860 5858 5857 5855 5854 5854 5850 5846 5845 5843 5842 5841
5880 5880 5879 5880 5879 5879 5879 5878 5878 5877 5877 5877 5876 5876 5875 5875 5875 5874 5873 5872 5871 5870 5869 5867 5866 5865 5864 5863 5862 5861 5860 5858 5857 5855 5854 5853 5851 5849 5848 5844 5844 5841 5838 5836 5833
5881 5881 5880 5879 5878 5878 5877 5876 5875 5875 5874 5873 5873 5872 5872 5871 5872 5870 5869 5867 5867 5865 5864 5863 5862 5861 5860 5858 5857 5856 5855 5853 5851 5850 5849 5847 5846 5845 5842 5841 5839 5836 5833 5829 5827
5882 5881 5880 5879 5878 5876 5875 5873 5872 5870 5870 5870 5869 5868 5867 5867 5866 5865 5864 5862 5862 5860 5859 5858 5857 5856 5855 5854 5852 5850 5849 5848 5847 5845 5844 5843 5841 5838 5835 5836 5832 5830 5826 5823 5821
5882 5881 5880 5879 5877 5874 5872 5869 5867 5866 5865 5865 5864 5863 5863 5863 5861 5860 5859 5858 5856 5855 5854 5853 5852 5851 5850 5849 5848 5847 5845 5842 5841 5840 5840 5838 5836 5833 5831 5829 5825 5821 5817 5814 5812
5882 5881 5880 5878 5875 5873 5869 5866 5863 5862 5860 5859 5859 5858 5857 5857 5855 5854 5853 5852 5851 5850 5849 5848 5848 5847 5845 5844 5843 5842 5842 5839 5837 5835 5833 5833 5830 5826 5825 5821 5818 5813 5808 5804 5801
5881 5879 5878 5876 5873 5870 5867 5864 5861 5858 5857 5855 5854 5853 5852 5851 5850 5850 5848 5848 5847 5846 5845 5844 5843 5842 5841 5840 5839 5837 5837 5834 5831 5829 5827 5826 5825 5821 5815 5812 5808 5803 5799 5795 5792
5879 5877 5876 5873 5871 5868 5865 5862 5859 5856 5853 5852 5851 5849 5848 5847 5846 5845 5845 5844 5842 5841 5840 5839 5838 5837 5836 5835 5834 5832 5830 5828 5826 5822 5819 5817 5817 5811 5805 5801 5796 5793 5788 5785 5780
5877 5875 5873 5871 5869 5866 5863 5860 5857 5854 5851 5849 5847 5847 5845 5844 5843 5842 5841 5840 5839 5838 5837 5836 5834 5833 5831 5829 5827 5826 5823 5821 5817 5815 5812 5810 5805 5800 5794 5788 5785 5782 5776 5771 5766
5875 5873 5871 5868 5866 5864 5861 5859 5857 5854 5850 5848 5846 5844 5843 5842 5840 5839 5838 5837 5836 5834 5833 5832 5831 5828 5826 5823 5820 5817 5814 5811 5808 5803 5802 5797 5794 5789 5783 5778 5774 5768 5761 5755 5750
5872 5870 5867 5865 5863 5860 5858 5855 5853 5851 5848 5845 5843 5842 5840 5839 5838 5837 5836 5834 5832 5831 5829 5828 5825 5823 5819 5816 5812 5808 5804 5801 5798 5792 5787 5784 5783 5772 5767 5762 5756 5750 5744 5738 5733
5869 5867 5864 5862 5860 5857 5854 5852 5849 5847 5845 5843 5841 5839 5838 5837 5835 5834 5832 5829 5828 5825 5823 5821 5819 5815 5811 5808 5804 5799 5794 5789 5784 5779 5773 5767 5768 5758 5752 5745 5738 5731 5726 5718 5710
5865 5862 5861 5859 5857 5854 5851 5848 5845 5843 5842 5840 5837 5835 5834 5833 5832 5830 5828 5826 5822 5820 5818 5814 5811 5807 5803 5798 5794 5789 5784 5779 5773 5766 5762 5753 5746 5749 5736 5726 5718 5712 5705 5698 5689
5861 5858 5856 5854 5853 5851 5848 5845 5841 5839 5838 5836 5833 5831 5830 5829 5826 5824 5822 5820 5817 5814 5812 5808 5802 5797 5793 5789 5783 5778 5772 5767 5761 5751 5743 5738 5726 5730 5720 5710 5698 5690 5681 5674 5666
5856 5854 5852 5850 5848 5846 5843 5841 5838 5836 5832 5830 5828 5827 5825 5823 5821 5818 5815 5813 5810 5807 5803 5798 5792 5787 5781 5774 5769 5762 5755 5750 5742 5733 5726 5719 5709 5710 5696 5685 5678 5670 5660 5653 5645
5851 5849 5847 5845 5843 5840 5838 5835 5834 5830 5828 5826 5823 5821 5820 5817 5814 5811 5808 5805 5802 5798 5794 5788 5781 5776 5771 5763 5755 5747 5739 5730 5727 5718 5709 5698 5685 5689 5672 5665 5657 5648 5641 5633 5626
5845 5843 5841 5839 5837 5834 5832 5830 5827 5824 5821 5819 5817 5815 5813 5810 5807 5804 5800 5796 5792 5787 5781 5777 5772 5764 5756 5749 5740 5731 5722 5710 5696 5694 5688 5683 5670 5670 5654 5646 5635 5627 5621 5615 5609
5839 5837 5835 5833 5831 5828 5826 5823 5820 5818 5816 5813 5810 5808 5806 5803 5799 5795 5791 5787 5784 5780 5773 5765 5760 5752 5743 5733 5726 5715 5706 5693 5676 5673 5660 5655 5655 5654 5634 5627 5617 5609 5604 5598 5593
5833 5830 5828 5826 5824 5821 5819 5816 5814 5811 5809 5807 5804 5802 5798 5795 5792 5787 5782 5779 5773 5767 5759 5752 5746 5740 5728 5718 5706 5695 5684 5674 5662 5648 5636 5635 5634 5633 5621 5610 5600 5595 5587 5583 5578
5824 5823 5821 5818 5817 5815 5813 5811 5808 5805 5803 5801 5797 5794 5792 5788 5784 5779 5774 5767 5762 5755 5748 5740 5734 5728 5714 5699 5691 5682 5670 5657 5650 5637 5624 5613 5621 5619 5606 5597 5592 5588 5580 5574 5568
5818 5817 5815 5813 5812 5809 5807 5804 5802 5798 5795 5793 5790 5787 5783 5778 5774 5769 5763 5756 5749 5742 5734 5726 5715 5711 5700 5681 5672 5665 5652 5641 5630 5626 5619 5606 5603 5605 5592 5586 5580 5576 5572 5567 5560
5812 5810 5808 5806 5804 5801 5799 5797 5795 5792 5788 5785 5782 5778 5774 5770 5763 5757 5750 5743 5735 5727 5717 5708 5696 5685 5683 5664 5653 5646 5635 5624 5616 5609 5609 5593 5593 5591 5585 5579 5574 5567 5564 5559 5554
5804 5802 5800 5798 5794 5792 5791 5789 5786 5783 5780 5776 5772 5768 5763 5758 5751 5743 5736 5728 5720 5709 5698 5687 5679 5669 5656 5648 5640 5636 5629 5617 5606 5598 5592 5594 5580 5582 5575 5570 5567 5563 5557 5552 5548
5795 5794 5791 5789 5787 5785 5783 5780 5777 5774 5770 5766 5762 5757 5751 5745 5740 5732 5725 5717 5706 5694 5680 5668 5661 5652 5645 5633 5624 5618 5615 5610 5596 5590 5579 5581 5575 5570 5568 5565 5561 5557 5553 5548 5543
5786 5784 5782 5779 5778 5775 5772 5770 5767 5763 5760 5756 5750 5745 5739 5733 5726 5719 5711 5699 5693 5681 5664 5652 5642 5632 5634 5622 5608 5606 5603 5593 5589 5580 5573 5569 5570 5565 5562 5560 5557 5553 5548 5542 5537
5774 5774 5772 5770 5768 5765 5763 5761 5756 5752 5749 5744 5739 5734 5727 5721 5713 5704 5694 5685 5672 5660 5650 5640 5624 5614 5613 5609 5597 5599 5591 5584 5579 5573 5567 5565 5563 5559 5558 5556 5553 5549 5543 5537 5531
Wind_Speed
10 9 7 9 11 3 3 3 5 7 7 7 8 10 11 13 13 13 14 15 17 18 18 18 18 18 18 18 18 18 18 18 18 19 20 20 21 22 23 25 28 27 26 26 26
9 7 6 7 7 0 4 6 8 9 10 10 11 12 14 15 15 15 16 17 18 19 20 20 21 20 19 18 18 19 19 20 20 21 22 23 24 24 23 26 31 30 31 32 32
8 7 6 7 8 6 7 9 12 13 15 16 16 16 16 17 17 18 19 21 21 22 22 23 22 21 19 19 20 21 21 22 23 24 24 25 25 25 24 28 28 31 33 34 36
11 11 10 8 9 12 14 16 17 19 20 21 21 20 20 20 22 22 23 24 24 25 25 24 23 21 21 21 22 22 23 25 26 26 26 27 27 24 27 27 28 32 34 37 39
9 9 10 11 12 13 15 17 20 23 23 23 24 24 25 25 25 26 27 28 27 27 25 24 22 22 22 23 24 26 26 27 28 28 26 25 26 27 31 28 31 33 37 39 41
9 10 11 14 17 19 19 19 20 22 23 23 24 26 26 28 28 28 29 28 27 25 23 23 23 23 25 25 25 25 27 28 26 26 25 27 29 30 31 31 34 36 39 40 41
12 12 13 16 19 22 20 19 20 20 22 25 26 27 27 27 27 26 26 26 25 23 23 23 24 25 26 26 26 25 22 24 26 29 29 29 31 34 35 37 38 41 43 45 46
12 14 15 17 19 21 22 19 18 19 20 19 20 23 22 23 23 24 24 23 22 23 24 25 25 25 25 25 23 23 24 27 30 32 34 36 36 37 40 41 43 46 48 50 51
14 16 18 19 19 20 20 19 18 18 17 17 17 17 18 19 20 22 23 24 24 24 24 24 24 23 23 23 26 28 30 31 32 35 37 38 37 42 46 47 49 51 52 52 54
16 18 19 20 21 19 20 18 17 16 16 17 17 16 17 17 18 19 20 20 20 20 21 22 23 24 27 29 31 33 34 35 37 38 39 40 43 46 49 52 52 54 56 58 60
17 19 20 21 22 21 19 17 16 15 15 15 15 15 15 16 16 18 19 19 20 21 22 25 27 29 31 34 36 37 39 39 39 43 45 48 47 49 51 52 54 56 59 62 65
20 21 22 23 23 22 21 20 17 17 18 17 17 16 17 19 19 18 20 22 22 23 26 29 32 32 34 35 37 40 42 43 44 48 51 51 49 55 58 61 63 64 66 67 69
23 22 24 24 24 23 23 22 21 20 19 18 18 20 21 18 19 20 21 24 26 28 29 30 31 33 36 38 40 42 46 48 50 53 54 56 57 62 66 67 70 72 73 75 77
23 24 24 23 23 24 24 24 23 22 20 21 21 22 19 21 20 24 25 27 27 27 28 32 35 38 40 42 46 49 51 53 56 59 62 67 71 69 74 77 79 78 78 79 81
26 25 26 25 24 25 24 24 23 23 23 22 23 22 24 24 28 28 26 26 27 31 34 36 39 42 44 46 48 52 56 60 65 68 70 69 76 73 76 78 80 82 82 81 80
27 26 28 27 28 28 28 28 29 26 25 23 23 23 24 25 25 27 28 30 33 34 37 38 42 44 47 51 56 60 63 64 67 71 76 79 81 81 80 79 79 79 80 78 75
28 28 27 28 27 28 30 31 28 28 26 24 24 24 24 25 28 29 31 33 35 39 41 44 48 51 56 59 63 65 70 74 77 81 80 82 86 83 79 77 72 71 70 68 66
29 27 28 29 32 32 32 31 29 29 26 25 24 25 26 28 30 32 35 38 41 45 47 50 55 60 65 68 72 76 80 85 84 85 87 85 85 80 77 69 64 64 63 60 59
29 31 30 32 35 35 33 30 29 27 25 24 26 28 28 30 32 35 39 42 46 48 54 59 63 67 73 75 78 81 83 83 85 86 87 86 82 78 67 59 58 59 57 55 54
34 34 32 33 32 32 31 28 26 26 26 27 29 32 33 34 38 41 45 48 53 56 60 64 71 75 79 82 84 85 87 80 77 77 81 79 72 66 57 57 57 56 55 54 49
32 32 33 34 33 32 31 29 29 28 29 30 31 32 34 37 40 43 48 53 57 61 67 72 75 80 84 85 84 82 78 76 73 65 66 71 67 55 52 55 54 51 48 41 39
32 30 29 27 29 31 32 31 30 30 31 31 33 35 38 41 45 50 56 63 65 69 73 78 82 86 89 90 84 80 80 70 63 63 60 60 67 47 50 50 47 45 40 37 35
32 30 32 33 33 32 34 35 35 34 35 36 39 42 46 48 53 57 61 66 69 71 77 82 87 91 91 87 81 72 68 60 58 58 55 58 57 44 42 41 37 39 36 31 30
30 34 38 37 35 34 35 35 37 37 38 42 45 46 48 51 57 62 65 70 73 76 79 85 89 84 83 74 67 66 62 57 53 52 52 52 49 39 36 32 32 31 32 32 33
37 38 39 37 36 37 37 38 40 41 43 46 46 46 51 58 62 64 71 74 77 78 79 80 81 75 73 65 61 59 53 44 49 49 50 43 40 32 29 28 28 30 31 33 34
38 39 38 39 39 40 40 41 41 43 46 47 50 56 62 64 65 70 76 77 80 83 84 81 75 73 72 58 58 57 48 48 45 40 38 36 29 26 25 24 25 29 33 34 35
40 41 40 40 40 40 41 43 44 48 50 53 58 61 67 68 73 76 80 82 87 86 80 75 69 63 63 56 56 48 45 44 41 31 30 26 22 21 20 21 25 28 31 35 37
Wind_Direction
318 309 298 341 355 23 148 279 299 321 316 299 283 283 289 295 298 296 299 302 307 310 313 313 311 308 306 305 304 303 299 296 294 297 298 297 295 294 295 295 291 293 296 291 288
319 318 305 331 348 276 199 270 287 296 308 306 293 287 286 290 293 295 299 303 307 308 308 308 308 306 302 301 299 298 294 291 293 293 293 293 294 293 292 288 286 292 289 290 289
19 357 327 311 320 298 245 252 268 281 289 292 293 287 287 287 290 292 296 300 302 304 305 305 305 303 299 297 295 293 288 289 291 290 291 290 289 287 288 284 288 286 288 287 285
35 30 23 354 316 297 284 274 275 277 280 285 289 290 289 289 293 293 296 297 301 304 304 304 302 299 295 293 291 288 287 287 289 289 290 289 287 290 283 287 291 290 290 286 287
21 20 13 4 351 333 312 294 284 278 277 280 283 286 288 287 288 291 293 297 299 299 300 299 298 295 292 291 290 290 289 287 289 290 289 290 292 292 290 295 292 292 288 287 287
5 359 12 360 349 344 332 310 298 288 287 287 285 284 285 287 288 290 292 294 294 295 295 294 293 291 289 290 289 289 291 294 294 293 292 291 291 288 291 292 291 290 287 285 284
354 343 339 335 338 338 336 326 306 303 295 290 291 292 292 292 289 290 290 291 292 293 292 291 291 292 293 293 293 293 295 293 294 294 292 290 290 289 291 290 288 287 286 285 283
334 331 334 335 337 340 342 336 330 319 306 307 303 298 296 296 295 293 292 293 294 294 292 293 294 294 294 294 293 293 293 294 294 294 292 291 291 291 287 287 285 283 283 283 283
331 331 334 335 336 338 342 343 340 335 330 319 313 311 304 300 299 298 296 296 295 296 297 298 299 299 298 296 295 296 297 297 294 293 293 294 295 291 290 290 289 288 288 288 287
331 330 329 329 332 335 336 339 340 340 339 330 326 320 314 310 309 308 308 308 309 308 305 306 304 302 300 300 299 299 298 298 297 294 291 295 297 295 294 294 296 294 293 291 291
327 325 324 324 324 327 329 333 332 329 331 326 323 318 315 312 311 311 310 310 309 306 305 303 302 303 302 302 302 301 300 299 298 296 297 298 298 295 292 293 294 294 293 291 290
322 320 319 318 316 320 323 328 327 326 323 321 319 319 315 312 314 314 312 309 304 303 303 303 304 304 303 302 302 302 302 300 299 299 298 298 301 299 298 297 295 294 291 288 287
321 318 317 318 318 319 323 325 326 325 320 313 316 317 315 316 314 309 307 304 304 304 305 304 305 304 302 303 302 301 301 300 299 298 299 298 298 296 297 296 296 293 293 291 289
317 315 317 318 320 318 320 323 323 322 315 311 310 314 309 310 307 306 306 305 305 306 307 305 305 302 300 300 302 303 304 304 304 304 304 303 303 304 301 298 296 295 292 291 290
320 319 319 319 317 317 319 321 324 319 312 309 306 306 308 309 309 308 307 306 306 307 307 307 305 304 305 306 307 309 308 308 307 305 302 300 298 301 299 298 296 296 294 293 291
318 315 315 313 313 310 309 314 319 317 312 304 303 303 305 308 306 305 305 304 303 305 308 310 308 309 309 309 309 307 306 306 306 304 305 306 303 305 302 298 297 295 293 294 293
316 318 319 320 321 320 318 314 310 311 313 307 303 303 305 305 304 304 303 302 304 307 311 310 310 311 312 310 309 310 310 309 308 307 304 303 301 305 300 299 299 297 295 293 292
318 320 318 316 319 323 320 318 313 311 309 306 304 304 305 303 302 304 306 308 312 313 311 311 313 314 314 316 314 314 313 309 306 305 303 302 301 304 302 304 299 296 294 294 293
310 310 309 315 318 321 314 309 308 305 303 302 302 305 308 307 307 307 306 310 313 316 315 315 316 317 317 314 313 310 307 306 302 301 299 300 300 305 307 304 300 298 299 299 299
309 309 306 313 323 322 309 306 304 301 300 301 303 305 308 311 314 315 315 315 315 316 317 316 317 318 314 313 310 309 308 305 304 303 301 302 304 308 307 304 301 304 304 304 305
313 313 316 312 317 315 311 306 304 301 300 301 301 304 308 309 309 311 313 315 317 319 319 318 316 316 316 310 308 306 304 304 302 302 301 304 306 311 305 299 300 303 303 305 300
308 310 315 318 321 312 305 303 301 298 298 299 301 303 305 306 306 313 319 319 320 318 318 316 314 315 314 310 307 307 306 305 303 303 301 301 306 312 301 302 305 305 306 306 307
303 310 311 308 311 309 306 304 302 302 303 303 305 306 308 309 313 314 317 318 318 317 316 315 314 313 311 308 310 310 310 306 301 300 303 299 311 303 301 303 303 306 307 309 307
299 308 313 307 302 302 302 302 301 301 301 304 306 308 310 312 312 315 316 316 316 316 314 312 311 310 310 308 308 307 304 302 301 298 298 303 302 306 304 305 306 307 311 315 317
295 306 312 308 306 305 303 304 307 306 306 308 308 309 314 315 314 314 314 315 314 313 310 308 308 308 308 309 307 304 306 302 296 299 298 304 302 306 306 306 307 310 316 316 314
299 306 307 306 302 305 306 306 307 307 307 308 308 311 312 311 313 316 316 312 311 310 308 308 309 307 309 309 303 304 306 300 299 299 298 299 309 295 298 303 308 315 315 316 317
296 303 304 302 302 302 304 307 309 311 313 313 312 311 311 311 313 314 316 315 314 310 309 309 308 308 310 303 300 308 301 298 300 296 293 299 299 292 297 301 311 318 322 324 320